[[{"header":{"parameterUnit":"m.s-1","parameterCategory":2,"la1":30.2992,"la2":30.254,"lo1":-89.0895,"lo2":-89.0443,"dy":0.0025,"dx":0.0025,"nx":19,"ny":19,"refTime":"2026-04-09T09:00:00:Z","depth":"0","parameterNumber":2,"parameterNumberName":"U-component_of_CURRENTS"},"data":[0,0,0,0.1143,0.1143,0.1128,0.1128,0.1135,0.1135,0,0,0,0,0,0,0,0,0,0,0,0.1146,0.1146,0.1143,0.1143,0.1128,0.1128,0.1135,0.1135,0,0,0,0,0,0,0,0,0,0,0,0.1146,0.1146,0.1146,0.1143,0.1128,0.1128,0.1135,0.1138,0,0,0,0,0,0,0,0,0,0,0.1148,0.1148,0.1146,0.1146,0.1143,0.1128,0.1128,0.1138,0.1138,0.1151,0,0.115,0,0.1147,0.1137,0.1137,0,0,0,0.1137,0.1148,0.1148,0.1146,0.1143,0.1128,0.1133,0.1138,0.1138,0.1151,0.115,0.115,0.1147,0.1137,0.1137,0.119,0.1191,0,0,0.1138,0.114,0.1147,0.1148,0.1142,0.1134,0.1133,0.1137,0.1138,0.115,0.115,0.1147,0.1137,0.1137,0.119,0.119,0,0,0,0.1144,0.1141,0.1139,0.1147,0.1145,0.1133,0.1132,0.1137,0.1138,0.115,0.1147,0.1137,0.1137,0.1189,0.119,0.1189,0,0,0,0.1144,0.1145,0.114,0.1141,0.1145,0.1137,0.1132,0.1137,0.1138,0.1147,0.1137,0.1138,0.1189,0.119,0.1188,0.1186,0,0,0,0.1146,0.1145,0.1145,0.1141,0.1138,0.1137,0.1137,0.1137,0.1136,0.1137,0.1138,0.1189,0.119,0.1187,0.1184,0.116,0,0,0,0.1147,0.1128,0.1145,0.1127,0.1138,0.1132,0.1137,0.1137,0.1137,0.1137,0.1189,0.119,0.1187,0.1184,0.116,0.0899,0.0879,0,0,0.1119,0.1125,0.1115,0.1129,0.1112,0.1133,0.1137,0.1144,0.1159,0.1187,0.1188,0.1188,0.1184,0.116,0.0956,0.0933,0,0,0,0.1103,0.1091,0.1092,0.1088,0.1099,0.1119,0.1135,0.1157,0.1189,0.1166,0.1209,0.1206,0.119,0.1034,0.1017,0.06,0.1194,0.1194,0.1194,0.1043,0.1055,0.1039,0.1058,0.1067,0.1113,0.1143,0.1182,0.1193,0.1221,0.1221,0.1223,0.1058,0.1042,0.0616,0.1239,0.1239,0.1239,0.1239,0.0982,0.0973,0.1001,0.0986,0.1034,0.105,0.1139,0.1176,0.1232,0.1246,0.1229,0.106,0.1022,0.0575,0.124,0.124,0.1239,0.1239,0.1239,0.093,0.0933,0.0928,0.0926,0.0948,0.101,0.1038,0.1138,0.1211,0.1234,0.1034,0.103,0.0621,0.121,0.121,0.121,0.121,0.121,0.1209,0.0883,0.0886,0.0858,0.0865,0.0861,0.0884,0.0982,0.1011,0.1002,0.101,0.1008,0.0544,0.1213,0.1196,0.1208,0.1208,0.1208,0.1209,0.1209,0.0834,0.083,0.0785,0.0766,0.0744,0.0666,0.0758,0.0677,0.0735,0.0668,0.021,0.0879,0.0847,0.0857,0.0831,0.0748,0.0748,0.0748,0.0748,0.0801,0.0797,0.072,0.0664,0.0617,0.0566,0.0304,0.0163,-0.0058,-0.0278,-0.0212,-0.0333,-0.0295,-0.0399,-0.036,-0.0412,-0.0808,-0.081,-0.0812,0.0777,0.0752,0.068,0.0614,0.0549,0.0401,0.0018,-0.0507,-0.0873,-0.0908,-0.0745,-0.0679,-0.0878,-0.0785,-0.0955,-0.0868,-0.0951,0,0]},{"header":{"parameterUnit":"m.s-1","parameterCategory":2,"la1":30.2992,"la2":30.254,"lo1":-89.0895,"lo2":-89.0443,"dy":0.0025,"dx":0.0025,"nx":19,"ny":19,"refTime":"2026-04-09T09:00:00:Z","depth":"0","parameterNumber":3,"parameterNumberName":"V-component_of_CURRENTS"},"data":[0,0,0,-0.031,-0.0309,-0.026,-0.026,-0.0232,-0.0232,0,0,0,0,0,0,0,0,0,0,0,-0.0326,-0.0326,-0.031,-0.0308,-0.026,-0.026,-0.0232,-0.0232,0,0,0,0,0,0,0,0,0,0,0,-0.0327,-0.0326,-0.0325,-0.0308,-0.026,-0.026,-0.0232,-0.0261,0,0,0,0,0,0,0,0,0,0,-0.0304,-0.0312,-0.0326,-0.0325,-0.0308,-0.026,-0.026,-0.0262,-0.0259,-0.0262,0,-0.025,0,-0.0239,-0.023,-0.023,0,0,0,-0.0312,-0.0315,-0.0302,-0.0325,-0.0307,-0.026,-0.0283,-0.026,-0.0257,-0.0259,-0.0249,-0.0248,-0.0239,-0.023,-0.023,-0.0168,-0.0168,0,0,-0.0314,-0.0319,-0.0304,-0.0299,-0.0289,-0.0285,-0.0281,-0.0258,-0.0253,-0.0249,-0.0247,-0.0238,-0.023,-0.023,-0.0169,-0.0168,0,0,0,-0.032,-0.0321,-0.0308,-0.0301,-0.0289,-0.0283,-0.028,-0.0254,-0.0249,-0.0247,-0.0238,-0.023,-0.023,-0.0169,-0.0169,-0.0106,0,0,0,-0.0322,-0.0324,-0.0309,-0.0312,-0.0289,-0.0266,-0.0276,-0.0251,-0.0248,-0.0238,-0.023,-0.0229,-0.017,-0.0169,-0.0109,-0.0055,0,0,0,-0.033,-0.0325,-0.0317,-0.0312,-0.029,-0.0266,-0.026,-0.025,-0.0242,-0.023,-0.0229,-0.017,-0.0169,-0.0111,-0.0061,-0.0011,0,0,0,-0.034,-0.0302,-0.0317,-0.0272,-0.029,-0.0232,-0.026,-0.0225,-0.021,-0.023,-0.017,-0.0169,-0.0112,-0.0064,-0.0015,0.0019,0.0037,0,0,-0.0293,-0.0296,-0.0268,-0.0281,-0.0215,-0.0239,-0.0167,-0.0169,-0.0194,-0.0182,-0.018,-0.0108,-0.0061,-0.0012,0.009,0.0106,0,0,0,-0.0254,-0.0233,-0.0215,-0.0185,-0.016,-0.0125,-0.0126,-0.0125,-0.0114,-0.0179,-0.01,-0.0072,-0.0044,-0.0031,-0.0017,-0.0012,-0.0163,-0.0163,-0.0163,-0.0186,-0.0177,-0.0125,-0.0105,-0.0072,-0.0044,-0.0014,-0.0014,-0.0055,-0.0042,-0.0017,0.0074,0.0088,0.0098,0.0103,-0.0026,-0.0025,-0.0025,-0.0025,-0.0104,-0.0066,-0.0062,-0.0011,0.0013,0.0062,0.0095,0.008,0.0121,0.006,0.0083,0.0041,0.0117,0.0116,-0.0021,-0.0022,-0.0022,-0.0023,-0.0023,-0.0047,-0.0027,-0.0013,0.0042,0.0096,0.0126,0.0196,0.0209,0.0192,0.0223,0.022,0.0219,0.0215,0.0222,0.0222,0.0223,0.0223,0.0223,0.0224,0.0011,0.0025,0.0057,0.0103,0.0128,0.0188,0.0261,0.0305,0.0345,0.0318,0.0317,0.0258,0.0149,0.0136,0.0231,0.0229,0.0229,0.0228,0.0227,0.0076,0.0075,0.0114,0.0135,0.0188,0.0204,0.0304,0.0403,0.0463,0.0487,0.0431,0.0363,0.0351,0.0339,0.0331,0.0471,0.0471,0.0471,0.0471,0.0109,0.0118,0.0135,0.0151,0.0198,0.021,0.0237,0.0342,0.0486,0.0532,0.0535,0.0476,0.0466,0.0457,0.0443,0.0434,0.0597,0.0597,0.0597,0.0125,0.013,0.012,0.0133,0.0175,0.0178,0.0107,0.0122,0.043,0.0601,0.0541,0.0536,0.0443,0.0427,0.04,0.0379,0.0359,0,0]}],[{"header":{"parameterUnit":"m.s-1","parameterCategory":2,"la1":30.2992,"la2":30.254,"lo1":-89.0895,"lo2":-89.0443,"dy":0.0025,"dx":0.0025,"nx":19,"ny":19,"refTime":"2026-04-09T09:00:00:Z","depth":"2","parameterNumber":2,"parameterNumberName":"U-component_of_CURRENTS"},"data":[0,0,0,0.1195,0.1194,0.1181,0.1181,0.1191,0.1192,0,0,0,0,0,0,0,0,0,0,0,0.1197,0.1197,0.1195,0.1194,0.1181,0.1181,0.1191,0.1192,0,0,0,0,0,0,0,0,0,0,0,0.1197,0.1197,0.1197,0.1194,0.1181,0.1181,0.1191,0.1193,0,0,0,0,0,0,0,0,0,0,0.1202,0.1201,0.1197,0.1197,0.1194,0.1181,0.1181,0.1193,0.1193,0.1207,0,0.1206,0,0.1203,0.1193,0.1193,0,0,0,0.1189,0.1201,0.12,0.1197,0.1194,0.1181,0.1186,0.1193,0.1193,0.1207,0.1206,0.1206,0.1203,0.1194,0.1194,0.1249,0.1249,0,0,0.119,0.1192,0.12,0.1201,0.1194,0.1186,0.1185,0.1193,0.1193,0.1206,0.1206,0.1204,0.1194,0.1194,0.1248,0.1249,0,0,0,0.1196,0.1192,0.1191,0.12,0.1198,0.1186,0.1185,0.1192,0.1193,0.1207,0.1204,0.1194,0.1194,0.1248,0.1248,0.1246,0,0,0,0.1196,0.1196,0.1191,0.1192,0.1198,0.1191,0.1185,0.1192,0.1193,0.1204,0.1194,0.1194,0.1247,0.1248,0.1245,0.1243,0,0,0,0.1197,0.1196,0.1196,0.1192,0.1189,0.1191,0.1191,0.1192,0.1192,0.1193,0.1195,0.1247,0.1248,0.1244,0.1242,0.1217,0,0,0,0.1198,0.1179,0.1196,0.1179,0.119,0.1185,0.1191,0.1192,0.1193,0.1194,0.1247,0.1248,0.1244,0.1241,0.1217,0.0982,0.0963,0,0,0.117,0.1176,0.1166,0.1181,0.1165,0.1186,0.1192,0.12,0.1216,0.1245,0.1246,0.1246,0.1241,0.1217,0.1037,0.1016,0,0,0,0.1154,0.1143,0.1144,0.1141,0.1153,0.1174,0.119,0.1213,0.1245,0.1222,0.1266,0.1264,0.1248,0.1107,0.1091,0.1253,0.1253,0.1253,0.1253,0.1094,0.1107,0.1092,0.1112,0.1121,0.1169,0.1199,0.1238,0.125,0.1277,0.1277,0.1279,0.113,0.1115,0.1295,0.1295,0.1295,0.1295,0.1295,0.1034,0.1025,0.1054,0.104,0.1088,0.1105,0.1195,0.1231,0.1287,0.1301,0.1285,0.113,0.1097,0.1296,0.1296,0.1295,0.1295,0.1295,0.1295,0.0981,0.0984,0.098,0.0979,0.1002,0.1064,0.1093,0.1193,0.1266,0.1288,0.1105,0.1102,0.1252,0.1264,0.1264,0.1264,0.1264,0.1264,0.1264,0.0932,0.0936,0.0908,0.0917,0.0914,0.0937,0.1036,0.1065,0.1067,0.1084,0.1081,0.1268,0.1269,0.1251,0.1262,0.1263,0.1263,0.1263,0.1263,0.0882,0.0878,0.0834,0.0815,0.0796,0.0758,0.0822,0.0752,0.0805,0.0746,0.0956,0.0964,0.0934,0.0944,0.0919,0.0844,0.0844,0.0844,0.0844,0.0848,0.0844,0.0768,0.0714,0.0669,0.0671,0.0497,0.047,0.0555,0.063,0.0641,0.0601,0.0619,0.0574,0.0592,0.0561,0.0393,0.0393,0.0393,0.0823,0.0798,0.0728,0.0664,0.0602,0.0546,0.0349,0.0137,0.0194,0.0388,0.07,0.0787,0.0752,0.0773,0.0724,0.0746,0.0704,0,0]},{"header":{"parameterUnit":"m.s-1","parameterCategory":2,"la1":30.2992,"la2":30.254,"lo1":-89.0895,"lo2":-89.0443,"dy":0.0025,"dx":0.0025,"nx":19,"ny":19,"refTime":"2026-04-09T09:00:00:Z","depth":"2","parameterNumber":3,"parameterNumberName":"V-component_of_CURRENTS"},"data":[0,0,0,-0.0289,-0.0288,-0.0239,-0.0239,-0.021,-0.021,0,0,0,0,0,0,0,0,0,0,0,-0.0306,-0.0305,-0.0289,-0.0288,-0.0239,-0.0239,-0.021,-0.021,0,0,0,0,0,0,0,0,0,0,0,-0.0306,-0.0306,-0.0305,-0.0288,-0.0239,-0.0239,-0.021,-0.0239,0,0,0,0,0,0,0,0,0,0,-0.0282,-0.0291,-0.0306,-0.0305,-0.0287,-0.0239,-0.0239,-0.024,-0.0237,-0.024,0,-0.0228,0,-0.0217,-0.0208,-0.0208,0,0,0,-0.0291,-0.0294,-0.0281,-0.0305,-0.0287,-0.0239,-0.0262,-0.0238,-0.0235,-0.0237,-0.0228,-0.0226,-0.0217,-0.0208,-0.0208,-0.0146,-0.0146,0,0,-0.0293,-0.0298,-0.0283,-0.0279,-0.0269,-0.0264,-0.026,-0.0236,-0.0231,-0.0228,-0.0225,-0.0216,-0.0208,-0.0208,-0.0147,-0.0146,0,0,0,-0.0299,-0.03,-0.0287,-0.028,-0.0268,-0.0262,-0.0259,-0.0232,-0.0228,-0.0225,-0.0216,-0.0208,-0.0208,-0.0147,-0.0147,-0.0085,0,0,0,-0.0301,-0.0303,-0.0288,-0.0291,-0.0268,-0.0245,-0.0255,-0.0229,-0.0226,-0.0216,-0.0208,-0.0207,-0.0148,-0.0147,-0.0088,-0.0036,0,0,0,-0.0309,-0.0304,-0.0297,-0.0292,-0.0269,-0.0245,-0.0238,-0.0228,-0.0221,-0.0208,-0.0207,-0.0148,-0.0147,-0.0091,-0.0041,0.0008,0,0,0,-0.0319,-0.0281,-0.0297,-0.0252,-0.0269,-0.0211,-0.0238,-0.0204,-0.0189,-0.0208,-0.0148,-0.0147,-0.0092,-0.0044,0.0005,0.0036,0.0054,0,0,-0.0273,-0.0276,-0.0248,-0.026,-0.0195,-0.0219,-0.0147,-0.0148,-0.0173,-0.016,-0.0159,-0.0087,-0.0041,0.0007,0.0105,0.0122,0,0,0,-0.0234,-0.0214,-0.0196,-0.0166,-0.014,-0.0106,-0.0106,-0.0105,-0.0094,-0.0158,-0.008,-0.0052,-0.0024,-0.0012,0.0001,-0.0141,-0.0141,-0.0141,-0.0141,-0.0168,-0.0158,-0.0107,-0.0087,-0.0054,-0.0025,0.0005,0.0004,-0.0035,-0.0023,0.0002,0.0091,0.0104,0.0114,-0.0007,-0.0007,-0.0007,-0.0007,-0.0006,-0.0088,-0.005,-0.0046,0.0005,0.003,0.0078,0.0112,0.0097,0.0138,0.0077,0.01,0.0058,0.0132,-0.0001,-0.0002,-0.0003,-0.0004,-0.0004,-0.0004,-0.0033,-0.0013,0.0,0.0056,0.011,0.014,0.021,0.0223,0.0207,0.0237,0.0234,0.0233,0.0138,0.0236,0.0237,0.0237,0.0238,0.0238,0.0238,0.0022,0.0036,0.0069,0.0115,0.0139,0.02,0.0274,0.0318,0.0357,0.033,0.0329,0.0173,0.0165,0.0152,0.0245,0.0244,0.0243,0.0243,0.0242,0.0085,0.0085,0.0123,0.0144,0.0198,0.0219,0.0315,0.0413,0.0473,0.0496,0.0379,0.0373,0.0362,0.0351,0.0342,0.0479,0.0479,0.0479,0.0479,0.0117,0.0126,0.0143,0.0159,0.0207,0.0225,0.0258,0.0348,0.0455,0.048,0.0479,0.0415,0.0406,0.0392,0.0379,0.0369,0.0513,0.0513,0.0513,0.0132,0.0137,0.0128,0.0141,0.0184,0.0197,0.0141,0.0119,0.0309,0.0509,0.0436,0.0491,0.0391,0.0379,0.0349,0.0333,0.0312,0,0]}],[{"header":{"parameterUnit":"m.s-1","parameterCategory":2,"la1":30.2992,"la2":30.254,"lo1":-89.0895,"lo2":-89.0443,"dy":0.0025,"dx":0.0025,"nx":19,"ny":19,"refTime":"2026-04-09T09:00:00:Z","depth":"4","parameterNumber":2,"parameterNumberName":"U-component_of_CURRENTS"},"data":[0,0,0,0.0975,0.0977,0.1079,0.1079,0.1165,0.1165,0,0,0,0,0,0,0,0,0,0,0,0.0944,0.0945,0.0975,0.0977,0.1079,0.1079,0.1165,0.1165,0,0,0,0,0,0,0,0,0,0,0,0.0944,0.0945,0.0946,0.0978,0.1079,0.1079,0.1164,0.1099,0,0,0,0,0,0,0,0,0,0,0.1006,0.0986,0.0945,0.0946,0.0978,0.1079,0.1079,0.1097,0.1103,0.1105,0,0.1127,0,0.1145,0.117,0.117,0,0,0,0.098,0.0981,0.1005,0.0946,0.0979,0.1078,0.1034,0.1101,0.1108,0.1114,0.1129,0.1132,0.1146,0.117,0.117,0.1246,0.1246,0,0,0.0974,0.0965,0.1,0.101,0.1013,0.103,0.1037,0.1106,0.1118,0.1129,0.1134,0.1148,0.1171,0.1171,0.1245,0.1246,0,0,0,0.0956,0.0961,0.0984,0.1006,0.1026,0.1033,0.1041,0.1115,0.1122,0.1135,0.1149,0.1171,0.1172,0.1245,0.1246,0.125,0,0,0,0.0953,0.095,0.0982,0.0978,0.1025,0.1079,0.1048,0.1118,0.1126,0.1148,0.1171,0.1172,0.1245,0.1245,0.1249,0.1252,0,0,0,0.0938,0.0949,0.0962,0.0977,0.1019,0.1078,0.109,0.112,0.1133,0.117,0.1173,0.1244,0.1245,0.1248,0.125,0.1249,0,0,0,0.0922,0.0947,0.0962,0.0996,0.1018,0.1072,0.109,0.1141,0.1174,0.1171,0.1245,0.1246,0.1248,0.125,0.1248,0.1047,0,0,0,0.0939,0.0949,0.0967,0.0983,0.1026,0.1058,0.1109,0.1162,0.1184,0.1218,0.1221,0.1249,0.125,0.1249,0.1094,0,0,0,0,0.0963,0.0976,0.0992,0.1024,0.1063,0.1104,0.1154,0.1179,0.1231,0.1207,0.1264,0.1265,0.1263,0.1145,0.1249,0.1249,0.1249,0.1249,0.1249,0.0959,0.0981,0.101,0.1045,0.108,0.1142,0.1181,0.1225,0.1241,0.1269,0.1279,0.1296,0.1173,0.1291,0.1291,0.1291,0.1291,0.1291,0.1291,0.0968,0.0976,0.1014,0.1051,0.1094,0.1139,0.1208,0.1238,0.1292,0.13,0.1298,0.1171,0.1292,0.1292,0.1292,0.1292,0.1291,0.1291,0.1291,0.0945,0.0951,0.0987,0.1034,0.1079,0.1137,0.1163,0.1237,0.1291,0.1311,0.1177,0.13,0.1286,0.1307,0.1307,0.1307,0.1307,0.1307,0.1307,0.0899,0.0934,0.0959,0.1012,0.1034,0.1068,0.1146,0.1163,0.1232,0.1164,0.1312,0.1302,0.1301,0.1288,0.1308,0.1308,0.1308,0.1308,0.1308,0.0861,0.0887,0.0914,0.0938,0.0971,0.0973,0.1053,0.1024,0.1035,0.1005,0.108,0.1091,0.1069,0.1074,0.1052,0.1003,0.1,0.0998,0,0.0828,0.0843,0.0873,0.0885,0.0871,0.0912,0.0833,0.0856,0.0917,0.0889,0.1082,0.1171,0.1176,0.1157,0.1157,0.1133,0,0,0,0.0804,0.082,0.0823,0.0847,0.0822,0.0773,0.0805,0.0767,0.09,0.0821,0.0934,0.095,0.1152,0.1308,0.1301,0.1301,0.1279,0,0]},{"header":{"parameterUnit":"m.s-1","parameterCategory":2,"la1":30.2992,"la2":30.254,"lo1":-89.0895,"lo2":-89.0443,"dy":0.0025,"dx":0.0025,"nx":19,"ny":19,"refTime":"2026-04-09T09:00:00:Z","depth":"4","parameterNumber":3,"parameterNumberName":"V-component_of_CURRENTS"},"data":[0,0,0,0.0232,0.0231,0.0174,0.0174,0.0137,0.0137,0,0,0,0,0,0,0,0,0,0,0,0.0256,0.0255,0.0232,0.0231,0.0174,0.0174,0.0137,0.0137,0,0,0,0,0,0,0,0,0,0,0,0.0256,0.0255,0.0255,0.023,0.0174,0.0174,0.0137,0.0171,0,0,0,0,0,0,0,0,0,0,0.0222,0.024,0.0255,0.0255,0.023,0.0174,0.0174,0.0172,0.0169,0.0173,0,0.0164,0,0.0148,0.0135,0.0135,0,0,0,0.0231,0.0243,0.0225,0.0255,0.0229,0.0174,0.02,0.017,0.0167,0.0168,0.0163,0.0161,0.0147,0.0135,0.0135,0.012,0.012,0,0,0.0235,0.0248,0.0227,0.0223,0.0215,0.0202,0.0198,0.0168,0.0167,0.0163,0.016,0.0147,0.0135,0.0134,0.012,0.012,0,0,0,0.0243,0.0251,0.0232,0.0225,0.021,0.02,0.0196,0.0168,0.0161,0.016,0.0146,0.0135,0.0134,0.012,0.012,0.015,0,0,0,0.0245,0.0255,0.0234,0.0242,0.0211,0.0184,0.0197,0.0163,0.0159,0.0146,0.0135,0.0134,0.012,0.012,0.015,0.0181,0,0,0,0.0258,0.0256,0.0249,0.0243,0.0217,0.0184,0.0175,0.0162,0.0151,0.0135,0.0134,0.012,0.012,0.0149,0.0179,0.0209,0,0,0,0.0275,0.0246,0.025,0.022,0.0217,0.0186,0.0175,0.0151,0.0138,0.0134,0.012,0.012,0.0148,0.0177,0.0207,0.0179,0,0,0,0.0242,0.0243,0.0225,0.0227,0.0199,0.0194,0.0182,0.016,0.0142,0.0133,0.0132,0.015,0.0178,0.0209,0.0183,0,0,0,0,0.0218,0.0207,0.0199,0.0188,0.0175,0.0186,0.0164,0.0163,0.0152,0.0133,0.0143,0.016,0.0178,0.0156,0.0121,0.0121,0.0121,0.0121,0.0121,0.0189,0.0187,0.0171,0.0173,0.0171,0.0178,0.0188,0.0185,0.0162,0.0163,0.0179,0.0217,0.0193,0.0162,0.0162,0.0162,0.0163,0.0163,0.0163,0.015,0.0131,0.0167,0.0151,0.0182,0.0187,0.0215,0.0213,0.0236,0.0203,0.0219,0.0182,0.0165,0.0165,0.0165,0.0164,0.0164,0.0164,0.0164,0.0119,0.0108,0.0124,0.0137,0.0172,0.0204,0.0253,0.0272,0.0269,0.0289,0.0265,0.0247,0.0252,0.0293,0.0293,0.0293,0.0294,0.0294,0.0294,0.0067,0.0083,0.0087,0.0119,0.0147,0.0203,0.0281,0.0318,0.0337,0.0312,0.0304,0.0261,0.0257,0.026,0.0298,0.0297,0.0297,0.0296,0.0296,0.0001,0.002,0.003,0.0058,0.0132,0.0185,0.0271,0.0353,0.0387,0.0394,0.0321,0.0319,0.0312,0.0307,0.0311,0.0366,0.0366,0.0366,0,-0.0039,-0.0033,-0.0001,0.0045,0.0103,0.0179,0.0249,0.0318,0.0345,0.0313,0.0363,0.0276,0.0275,0.0261,0.0257,0.0258,0,0,0,-0.0061,-0.0046,-0.002,0.0029,0.0098,0.0194,0.0273,0.0289,0.0326,0.0391,0.0361,0.0362,0.035,0.031,0.0295,0.029,0.0294,0,0]}]]